x

8419317 - Wells, Me (welm1) Weather Station

5:54 - Tue 26th Sep 2017 All times are EDT. -4 hours from GMT.

  • Wind
    2mph, 3mph gusts
  • Sea Temp 63°f
  • Air Temp 61°f
  • Sea Pressure 1017mb
  • 8419317 - Wells, Me
  • 8419317 - Wells, Me

More Historic Weather Station data

Upgrade to MSW Pro to gain access to the past 30 days of data for over 8000 Wavebouys and Weather Stations around the globe.

Join

Comparision Forecast

View Surf forecast
   
mar. 09/26 5:54 2 3 mph 1017mb 63f 61f
5:48 2 2 mph 1017mb 63f 61f
5:42 1 1 mph 1017mb 63f 61f
5:36  -  1 mph 1017mb 63f 61f
5:30 2 3 mph 1017mb 63f 61f
5:24 1 2 mph 1016.9mb 63f 62f
5:18 1 2 mph 1016.9mb 63f 62f
5:12 1 2 mph 1016.9mb 63f 62f
5:06 1 2 mph 1016.9mb 63f 62f
5:00 2 3 mph 1016.9mb 63f 62f
4:54 2 3 mph 1017mb 63f 62f
4:48 3 6 mph 1017mb 63f 62f
4:42 5 6 mph 1017.1mb 63f 62f
4:36 7 7 mph 1017.1mb 63f 62f
4:30 6 8 mph 1017.1mb 63f 63f
4:24 6 7 mph 1017.1mb 63f 63f
4:18 6 7 mph 1017.1mb 63f 63f
4:12 6 7 mph 1017mb 63f 63f
4:06 5 7 mph 1016.9mb 63f 63f
4:00 6 6 mph 1016.9mb 63f 62f
3:54 5 7 mph 1017.1mb 63f 62f
3:48 6 7 mph 1017.2mb 63f 62f
3:42 1 3 mph 1017.1mb 63f 60f
3:36 3 3 mph 1017mb 63f 61f
3:30 3 5 mph 1017mb 63f 60f
3:24 3 3 mph 1017.1mb 63f 60f
3:18 2 2 mph 1017.1mb 63f 60f
3:12  -  1 mph 1017.1mb 63f 60f
3:06  -  1 mph 1017.2mb 63f 60f
3:00  -  1 mph 1017.3mb 63f 60f
2:54  -  0 mph 1017.3mb 63f 60f
2:48  -  1 mph 1017.2mb 63f 60f
2:42  -  1 mph 1017.3mb 63f 60f
2:36 1 2 mph 1017.4mb 63f 60f
2:30 2 3 mph 1017.4mb 63f 60f
2:24 2 2 mph 1017.4mb 63f 60f
2:18 1 2 mph 1017.4mb 63f 61f
2:12  -  1 mph 1017.4mb 63f 61f
2:06  -  0 mph 1017.3mb 63f 60f
2:00  -  2 mph 1017.4mb 63f 60f
1:54 1 1 mph 1017.4mb 63f 61f
1:48  -  1 mph 1017.4mb 63f 61f
1:42  -  1 mph 1017.4mb 63f 61f
1:36 1 2 mph 1017.5mb 63f 61f
1:30 1 2 mph 1017.5mb 63f 61f
1:24 2 3 mph 1017.6mb 63f 60f
1:18 3 3 mph 1017.6mb 63f 61f
1:12 3 3 mph 1017.7mb 63f 61f
1:06 2 3 mph 1017.8mb 63f 61f
1:00 2 2 mph 1017.8mb 64f 61f
12:54  -  2 mph 1017.9mb 64f 61f
12:48  -  1 mph 1017.8mb 64f 62f
12:42  -  2 mph 1017.7mb 65f 62f
12:36 1 1 mph 1017.6mb 67f 62f
12:30 1 2 mph 1017.7mb 67f 61f
12:24 1 3 mph 1017.8mb 68f 62f
12:18 1 2 mph 1017.8mb 68f 62f
12:12  -  1 mph 1017.8mb 68f 62f
12:06  -  0 mph 1017.8mb 68f 62f
12:00  -  2 mph 1017.8mb 68f 62f
lun. 09/25 11:54 1 1 mph 1017.8mb 68f 62f
11:48 1 2 mph 1017.8mb 68f 62f
11:42 2 2 mph 1017.9mb 68f 62f
11:36 2 2 mph 1017.9mb 68f 62f
11:30 1 2 mph 1018mb 68f 62f
11:24  -  1 mph 1018.1mb 68f 62f
11:18 1 2 mph 1018.1mb 68f 62f
11:12 2 3 mph 1018.1mb 68f 62f
11:06  -  0 mph 1018.1mb 68f 63f
11:00  -  0 mph 1018mb 68f 63f
10:54  -  1 mph 1018.1mb 68f 63f
10:48 1 2 mph 1018mb 68f 63f
10:42 2 2 mph 1018.1mb 68f 63f
10:36 2 3 mph 1018.1mb 68f 63f
10:30  -  2 mph 1018.1mb 68f 64f
10:24 2 2 mph 1018mb 67f 65f
10:18  -  1 mph 1018.1mb 67f 64f
10:12 1 2 mph 1018.1mb 67f 65f
10:06  -  5 mph 1018.1mb 67f 65f
10:00 3 5 mph 1018.1mb 67f 64f
9:54 1 1 mph 1018.2mb 67f 64f
9:48 1 1 mph 1018.3mb 67f 64f
9:42  -  2 mph 1018.4mb 67f 64f
9:36  -  1 mph 1018.4mb 67f 64f
9:30  -  1 mph 1018.4mb 67f 64f
9:24  -  1 mph 1018.3mb 67f 64f
9:18  -  1 mph 1018.4mb 67f 64f
9:12  -  1 mph 1018.4mb 67f 64f
9:06 1 2 mph 1018.4mb 67f 64f
9:00 2 3 mph 1018.4mb 67f 64f
8:48 2 2 mph 1018.4mb 67f 64f
8:42 1 2 mph 1018.5mb 67f 65f
8:36  -  1 mph 1018.4mb 67f 65f
8:30 1 1 mph 1018.5mb 67f 65f
8:24  -  1 mph 1018.4mb 67f 65f
8:18 1 2 mph 1018.5mb 67f 65f
8:12 2 3 mph 1018.5mb 67f 65f
8:06 3 3 mph 1018.5mb 67f 65f
8:00 2 2 mph 1018.4mb 67f 66f
7:54  -  0 mph 1018.3mb 67f 66f
7:48  -  2 mph - - -
7:42 2 2 mph - - -
7:36  -  1 mph - - -
7:30  -  0 mph 1018.2mb 66f 67f
7:24  -  1 mph 1018.1mb 66f 67f
7:18  -  1 mph 1018mb 66f 67f
7:12  -  1 mph 1018.1mb 66f 67f
7:06  -  1 mph 1018mb 66f 67f
7:00 1 1 mph 1018mb 66f 67f
6:54 2 2 mph 1018mb 66f 67f
6:48 2 3 mph 1018mb 65f 67f
6:42 3 3 mph 1018.1mb 65f 67f
6:36 3 6 mph 1018.1mb 65f 67f
6:30 6 8 mph 1018.1mb 65f 67f
6:24 7 10 mph 1018.2mb 65f 67f
6:18 8 10 mph 1018.1mb 65f 68f
6:12 8 13 mph 1018.1mb 65f 68f
6:06 9 11 mph 1018.1mb 65f 68f
6:00 9 13 mph 1018.1mb 65f 68f
5:54 9 10 mph 1018.1mb 65f 68f
5:48 7 8 mph 1018.1mb 64f 69f
5:42 6 7 mph 1018.1mb 64f 69f
5:36 5 7 mph 1018mb 64f 69f
5:30 5 6 mph 1018mb 64f 69f
5:24 6 7 mph 1018mb 64f 69f
5:18 5 7 mph 1018mb 64f 70f
5:12 6 8 mph 1018.1mb 64f 70f
5:06 6 8 mph 1018.1mb 64f 70f
5:00 3 6 mph 1018.2mb 64f 71f
4:54 5 7 mph 1018.1mb 64f 71f
4:48 5 5 mph 1018.2mb 63f 72f
4:42 2 3 mph 1018.1mb 63f 72f
4:36 3 6 mph 1018.1mb 63f 71f
4:30 3 6 mph 1018.1mb 63f 71f
4:24 3 6 mph 1018.2mb 63f 72f
4:18 3 5 mph 1018.2mb 63f 72f
4:12 5 6 mph 1018.2mb 63f 72f
4:06 6 7 mph 1018.3mb 63f 72f
4:00 5 6 mph 1018.3mb 63f 72f
3:54 5 6 mph 1018.2mb 63f 72f
3:48 5 7 mph 1018.2mb 63f 71f
3:42 6 7 mph 1018.2mb 63f 71f
3:36 5 6 mph 1018.2mb 63f 72f
3:30 5 6 mph 1018.3mb 63f 72f
3:24 5 6 mph 1018.2mb 63f 72f
3:18 6 8 mph 1018.4mb 63f 71f
3:12 6 6 mph 1018.4mb 63f 72f
3:06 5 6 mph 1018.4mb 63f 72f
3:00 6 6 mph 1018.5mb 63f 72f
2:54 5 6 mph 1018.5mb 63f 72f
2:48 5 6 mph 1018.6mb 63f 71f
2:42 5 6 mph 1018.6mb 63f 71f
2:36 5 7 mph 1018.7mb 63f 71f
2:30 6 7 mph 1018.7mb 63f 71f
2:24 5 7 mph 1018.8mb 63f 71f
2:18 6 7 mph 1018.8mb 63f 71f
2:12 6 8 mph 1018.8mb 63f 71f
2:06 6 7 mph 1018.8mb 63f 72f
2:00 6 6 mph 1018.9mb 63f 73f
1:54 5 6 mph 1018.9mb 63f 73f
1:48 5 6 mph 1019mb 63f 73f
1:42 5 6 mph 1019mb 63f 73f
1:36 5 6 mph 1019mb 63f 73f
1:30 3 6 mph 1019mb 63f 72f
1:24 6 7 mph 1019mb 63f 74f
1:18 3 5 mph 1019mb 64f 74f
1:12 3 6 mph 1019.1mb 64f 75f
1:06 5 6 mph 1019.1mb 64f 74f
1:00 5 6 mph 1019.1mb 64f 74f
12:54 5 6 mph 1019.1mb 64f 74f
12:48 2 5 mph 1019.2mb 64f 76f
12:42 3 5 mph 1019.3mb 64f 76f
12:36 5 5 mph 1019.3mb 64f 75f
12:30 5 7 mph 1019.4mb 63f 75f
12:24 5 6 mph 1019.3mb 63f 75f
12:18 5 6 mph 1019.2mb 63f 75f
12:12 3 6 mph 1019.2mb 63f 75f
12:06 3 6 mph 1019.2mb 64f 75f
12:00 3 5 mph 1019.2mb 64f 75f
11:54 5 6 mph 1019.2mb 65f 75f
11:48 1 5 mph 1019.2mb 65f 75f
11:42 2 5 mph 1019.2mb 65f 75f
11:36 3 5 mph 1019.3mb 65f 75f
11:30 3 6 mph 1019.3mb 64f 74f
11:24 3 6 mph 1019.4mb 64f 73f
11:18 5 7 mph 1019.4mb 64f 72f
11:12 5 7 mph 1019.4mb 64f 73f
11:06 5 6 mph 1019.5mb 64f 74f
11:00 3 5 mph 1019.5mb 64f 74f
10:54 5 7 mph 1019.4mb 64f 74f
10:48 6 7 mph 1019.4mb 64f 73f
10:42 6 7 mph 1019.4mb 64f 73f
10:36 7 7 mph 1019.4mb 64f 73f
10:30 6 8 mph 1019.4mb 64f 73f
10:24 6 7 mph 1019.3mb 64f 73f
10:18 3 5 mph 1019.3mb 64f 75f
10:12 3 5 mph 1019.2mb 64f 75f
10:06 3 3 mph 1019.2mb 64f 73f
10:00 2 6 mph 1019.3mb 64f 74f
9:54 2 5 mph 1019.2mb 64f 75f
9:48 6 6 mph 1019.3mb 64f 74f
9:42 2 3 mph 1019.2mb 64f 73f
9:36 2 3 mph 1019.2mb 64f 72f
9:30 2 3 mph 1019.2mb 64f 72f
9:24 3 3 mph 1019.2mb 64f 72f
9:18 3 5 mph 1019.2mb 64f 71f
9:12 3 3 mph 1019.2mb 64f 72f
9:06 5 5 mph 1019.2mb 64f 74f
9:00 2 3 mph 1019.1mb 64f 75f
8:48 1 2 mph 1019mb 64f 73f
8:42 1 1 mph 1019mb 64f 73f
8:36  -  1 mph 1018.9mb 64f 73f
8:30  -  1 mph 1018.9mb 64f 73f
8:24 2 3 mph 1019mb 64f 71f
8:18  -  1 mph 1018.9mb 64f 71f
8:12  -  0 mph 1018.8mb 64f 71f
8:06  -  1 mph 1018.8mb 64f 69f
8:00  -  1 mph 1018.7mb 63f 68f
7:54  -  1 mph 1018.7mb 63f 67f
7:48 1 2 mph 1018.7mb 63f 67f
7:42 1 2 mph 1018.7mb 63f 66f
7:36 1 1 mph 1018.6mb 63f 66f
7:30  -  1 mph 1018.5mb 63f 66f
7:24 1 1 mph 1018.5mb 63f 65f
7:18  -  0 mph 1018.4mb 63f 65f
7:12  -  2 mph 1018.4mb 63f 64f
7:06 1 1 mph 1018.4mb 63f 63f
7:00 1 2 mph 1018.4mb 63f 63f
6:54 1 2 mph 1018.3mb 63f 63f
6:48  -  1 mph 1018.3mb 63f 63f
6:42  -  1 mph 1018.2mb 63f 62f
6:36  -  2 mph 1018.1mb 63f 63f
6:30  -  2 mph 1018.1mb 63f 63f
6:24  -  1 mph 1018mb 62f 63f
6:18  -  1 mph 1017.9mb 62f 63f
6:12 1 2 mph 1017.9mb 62f 63f
6:06 2 3 mph 1017.8mb 62f 63f
6:00 2 2 mph 1017.8mb 62f 62f
5:54 1 2 mph 1017.8mb 62f 63f
5:48 1 2 mph 1017.7mb 62f 63f
5:42 2 2 mph 1017.6mb 62f 63f
5:36 1 1 mph 1017.6mb 62f 63f
5:30  -  0 mph 1017.6mb 62f 63f
5:24  -  0 mph 1017.5mb 62f 63f
5:18  -  0 mph 1017.5mb 62f 63f
5:12  -  0 mph 1017.4mb 62f 64f
5:06  -  0 mph 1017.4mb 62f 64f
5:00  -  1 mph 1017.3mb 62f 63f
4:54  -  1 mph 1017.2mb 62f 63f
4:48  -  2 mph 1017.2mb 62f 63f
4:42 3 3 mph 1017.1mb 62f 63f
4:36 3 3 mph 1017.1mb 62f 63f
4:30 1 2 mph 1017.1mb 62f 63f
4:24 1 2 mph 1017mb 62f 64f
4:18 2 2 mph 1017mb 62f 63f
4:12 2 2 mph 1016.8mb 62f 64f
4:06 2 2 mph 1016.8mb 62f 64f
4:00 1 2 mph 1016.8mb 62f 64f
3:54 1 2 mph 1016.9mb 62f 63f
3:48 2 2 mph 1016.9mb 62f 64f
3:42 2 2 mph 1016.9mb 62f 63f
3:36 3 3 mph 1016.9mb 62f 63f
3:30 3 3 mph 1016.9mb 62f 64f
3:24 1 2 mph 1016.9mb 62f 64f
3:18 2 3 mph 1017mb 62f 64f
3:12 3 3 mph 1016.9mb 62f 64f
3:06 3 5 mph 1016.9mb 62f 63f
3:00 3 3 mph 1016.9mb 62f 63f
2:54 2 3 mph 1016.9mb 62f 63f
2:48 2 3 mph 1016.9mb 62f 63f
2:42 2 2 mph 1016.8mb 62f 63f
2:36 2 2 mph 1016.9mb 62f 64f
2:30 2 2 mph 1016.8mb 62f 65f
2:24 2 3 mph 1016.9mb 62f 64f
2:18  -  1 mph 1017mb 62f 64f
2:12  -  2 mph 1017mb 62f 64f
2:06 1 3 mph 1017mb 62f 64f
2:00 2 6 mph 1017mb 62f 65f
1:54 5 8 mph 1017mb 62f 65f
1:48 1 5 mph 1017.1mb 62f 63f
1:42 2 2 mph 1017.1mb 62f 64f
1:36 1 2 mph 1017.3mb 62f 64f
1:30 2 3 mph 1017.2mb 62f 64f
1:24 2 2 mph 1017.2mb 62f 64f
1:18  -  1 mph 1017.2mb 62f 64f
1:12  -  1 mph 1017.2mb 62f 64f
1:06 1 2 mph 1017.1mb 62f 64f
1:00 1 2 mph 1017.1mb 62f 64f
12:54  -  0 mph 1017.1mb 62f 64f
12:48  -  1 mph 1017.1mb 62f 64f
12:42  -  2 mph 1017.1mb 62f 65f
12:36 1 2 mph 1017.1mb 63f 65f
12:30 2 3 mph 1017.1mb 63f 64f
12:24 3 3 mph 1017.1mb 63f 64f
12:18 2 3 mph 1017.2mb 63f 64f
12:12 2 2 mph 1017.2mb 63f 65f
12:06 2 3 mph 1017.2mb 63f 64f
12:00 2 2 mph 1017.1mb 64f 65f
dim. 09/24 11:54 2 2 mph 1017.2mb 65f 65f
11:48 1 2 mph 1017.2mb 66f 65f
11:42 1 2 mph 1017.3mb 68f 65f
11:36  -  0 mph 1017.3mb 68f 65f
11:30  -  1 mph 1017.3mb 68f 65f
11:24  -  1 mph 1017.3mb 68f 65f
11:18  -  1 mph 1017.2mb 68f 65f
11:12 1 3 mph 1017.2mb 68f 66f
11:06  -  2 mph 1017.2mb 68f 66f
11:00 2 3 mph 1017.2mb 68f 66f
10:54  -  1 mph 1017.2mb 68f 66f
10:48  -  2 mph 1017.3mb 68f 66f
10:42 2 2 mph 1017.2mb 68f 66f
10:36 1 5 mph 1017.1mb 68f 66f
10:30  -  1 mph 1017.1mb 68f 67f
10:24  -  1 mph 1017.1mb 68f 67f
10:18  -  1 mph 1017.1mb 68f 67f
10:12  -  1 mph 1017mb 68f 67f
10:06  -  1 mph 1017mb 68f 66f
10:00  -  2 mph 1017.1mb 68f 66f
9:54 2 3 mph 1017mb 68f 66f
9:48 2 2 mph 1016.9mb 67f 65f
9:42 2 2 mph 1016.9mb 67f 66f
9:36 2 2 mph 1016.9mb 67f 66f
9:30 2 2 mph 1016.8mb 67f 66f
9:24 2 2 mph 1016.8mb 67f 66f
9:18 1 2 mph 1016.8mb 67f 66f
9:12 1 2 mph 1016.9mb 67f 66f
9:06 1 1 mph 1016.8mb 67f 66f
9:00 1 1 mph 1016.8mb 67f 66f
8:54  -  1 mph 1016.8mb 67f 67f
8:48  -  1 mph 1016.8mb 67f 67f
8:42 1 2 mph 1016.9mb 67f 67f
8:36 2 2 mph 1016.9mb 67f 67f
8:30 2 2 mph 1016.8mb 67f 67f
8:24 2 3 mph 1016.9mb 67f 67f
8:18 3 3 mph 1017mb 67f 67f
8:12 2 2 mph 1016.9mb 67f 67f
8:06 2 2 mph 1016.8mb 67f 67f
8:00 2 2 mph 1016.8mb 67f 67f
7:54 2 2 mph 1016.8mb 68f 67f
7:48 2 2 mph - - -
7:42 2 3 mph - - -
7:36 2 3 mph - - -
7:30 2 2 mph 1016.5mb 68f 67f
7:24 1 2 mph 1016.4mb 68f 68f
7:18 2 2 mph 1016.4mb 68f 68f
7:12 1 2 mph 1016.4mb 67f 68f
7:06  -  1 mph 1016.3mb 67f 69f
7:00 1 2 mph 1016.2mb 67f 69f
6:54 3 5 mph 1016.1mb 67f 69f
6:48 3 6 mph 1016mb 67f 69f
6:42 5 6 mph 1016mb 67f 70f
6:36 3 5 mph 1016mb 67f 69f
6:30 2 3 mph 1016mb 66f 69f
6:24 3 6 mph 1016.1mb 66f 69f
6:18 6 9 mph 1016.1mb 66f 69f
6:12 8 10 mph 1016.1mb 66f 68f
6:06 9 11 mph 1016.2mb 66f 68f
6:00 9 10 mph 1016.2mb 65f 69f
5:54 8 9 mph 1016.2mb 65f 69f
5:48 8 10 mph 1016.2mb 65f 69f
5:42 9 10 mph 1016.2mb 65f 69f
5:36 8 11 mph 1016.2mb 65f 70f
5:30 9 10 mph 1016.1mb 65f 71f
5:24 10 14 mph 1016mb 65f 70f
5:18 9 14 mph 1016.1mb 65f 71f
5:12 10 13 mph 1016mb 65f 71f
5:06 11 14 mph 1016mb 65f 70f
5:00 10 13 mph 1016mb 65f 72f
4:54 11 14 mph 1015.9mb 64f 72f
4:48 13 14 mph 1016mb 64f 71f
4:42 13 14 mph 1016mb 64f 71f
4:36 14 16 mph 1016mb 64f 71f
4:30 14 15 mph 1016.1mb 64f 72f
4:24 11 14 mph 1016.1mb 64f 72f
4:18 13 15 mph 1016.2mb 64f 73f
4:12 13 15 mph 1016.2mb 64f 73f
4:06 11 14 mph 1016.2mb 64f 73f
4:00 13 15 mph 1016.3mb 64f 73f
3:54 11 14 mph 1016.3mb 64f 72f
3:48 10 14 mph 1016.3mb 64f 73f
3:42 11 14 mph 1016.4mb 64f 72f
3:36 11 14 mph 1016.4mb 64f 72f
3:30 11 14 mph 1016.4mb 64f 72f
3:24 13 14 mph 1016.6mb 64f 72f
3:18 11 13 mph 1016.6mb 64f 71f
3:12 11 14 mph 1016.7mb 64f 72f
3:06 10 13 mph 1016.8mb 64f 72f
3:00 10 11 mph 1016.9mb 64f 72f
2:54 9 11 mph 1016.9mb 63f 73f
2:48 9 11 mph 1016.8mb 64f 72f
2:42 9 13 mph 1016.8mb 63f 71f
2:36 9 11 mph 1016.8mb 63f 71f
2:30 10 13 mph 1016.8mb 63f 72f
2:24 10 13 mph 1016.8mb 63f 72f
2:18 10 13 mph 1016.8mb 63f 72f
2:12 10 11 mph 1016.9mb 63f 72f
2:06 10 13 mph 1016.9mb 63f 72f
2:00 10 13 mph 1017mb 63f 72f
1:54 11 13 mph 1017.1mb 63f 72f
1:48 11 13 mph 1017.1mb 63f 73f
1:42 10 11 mph 1017.1mb 63f 74f
1:36 9 10 mph 1017.1mb 63f 73f
1:30 8 10 mph 1017.1mb 63f 74f
1:24 7 9 mph 1017.2mb 63f 74f
1:18 8 10 mph 1017.3mb 63f 74f
1:12 9 10 mph 1017.3mb 63f 74f
1:06 8 9 mph 1017.3mb 63f 75f
1:00 8 10 mph 1017.3mb 63f 75f
12:54 8 9 mph 1017.4mb 63f 76f
12:48 7 8 mph 1017.4mb 63f 77f
12:42 7 8 mph 1017.4mb 63f 77f
12:36 6 7 mph 1017.5mb 63f 77f
12:30 6 7 mph 1017.6mb 63f 78f
12:24 6 7 mph 1017.6mb 63f 77f
12:18 6 7 mph 1017.6mb 63f 77f
12:12 7 8 mph 1017.7mb 63f 77f
12:06 7 7 mph 1017.7mb 63f 77f
12:00 6 6 mph 1017.7mb 63f 78f
11:54 6 6 mph 1017.8mb 63f 78f
11:48 6 6 mph 1017.8mb 63f 77f
11:42 6 6 mph 1017.8mb 63f 77f
11:36 5 6 mph 1017.8mb 63f 77f
11:30 6 6 mph 1017.9mb 63f 77f
11:24 6 7 mph 1017.8mb 63f 77f
11:18 6 7 mph 1017.9mb 63f 77f
11:12 6 7 mph 1017.9mb 63f 77f
11:06 6 6 mph 1017.9mb 64f 77f
11:00 6 6 mph 1017.9mb 64f 77f
10:54 5 7 mph 1018mb 63f 77f
10:48 6 7 mph 1018mb 63f 77f
10:42 6 6 mph 1018.1mb 63f 77f
10:36 5 5 mph 1018.1mb 63f 77f
10:30 5 6 mph 1018.1mb 63f 76f
10:24 5 6 mph 1018mb 63f 75f
10:18 6 6 mph 1017.9mb 63f 74f
10:12 6 6 mph 1017.9mb 63f 76f
10:06 3 5 mph 1018mb 63f 76f
10:00 3 5 mph 1017.9mb 63f 77f
9:54 1 3 mph 1018mb 63f 78f
9:48 3 3 mph 1018.1mb 63f 79f
9:42  -  2 mph 1018mb 63f 79f
9:36  -  1 mph 1017.9mb 63f 80f
9:30  -  1 mph 1018.1mb 63f 79f
9:24 1 1 mph 1018.1mb 63f 78f
9:18  -  2 mph 1018.1mb 63f 76f
9:12 2 2 mph 1018mb 63f 75f
9:06  -  1 mph 1018.1mb 63f 77f
9:00  -  1 mph 1018mb 63f 78f
8:54  -  1 mph 1018.1mb 63f 77f
8:48  -  0 mph 1018.2mb 63f 77f
8:42  -  1 mph 1018.2mb 63f 75f
8:36 1 1 mph 1018.1mb 63f 77f
8:30 1 1 mph 1018.1mb 63f 76f
8:24 1 2 mph 1018.1mb 63f 75f
8:18 1 2 mph 1018mb 63f 74f
8:12  -  1 mph 1018mb 63f 74f
8:06  -  0 mph 1017.9mb 63f 72f
8:00  -  1 mph 1017.9mb 63f 74f
7:54  -  1 mph 1017.8mb 63f 70f
7:48  -  2 mph 1017.8mb 63f 69f
7:42 2 2 mph 1017.9mb 63f 66f
7:36 1 2 mph 1018mb 63f 66f
7:30 2 5 mph 1018mb 63f 65f
7:24 2 3 mph 1018mb 63f 65f
7:18  -  1 mph 1017.9mb 63f 67f
7:12  -  1 mph 1017.9mb 63f 65f
7:06 1 3 mph 1017.8mb 63f 64f
7:00 2 2 mph 1017.8mb 63f 64f
6:54 2 5 mph 1017.8mb 63f 65f
6:48 3 6 mph 1017.8mb 63f 65f
6:42 6 6 mph 1017.8mb 63f 65f
6:36 5 6 mph 1017.8mb 63f 64f
6:30 1 2 mph 1017.7mb 63f 64f
6:24  -  1 mph 1017.6mb 63f 63f
6:18  -  1 mph 1017.5mb 63f 63f
6:12  -  1 mph 1017.5mb 63f 63f
6:06 1 3 mph 1017.4mb 63f 63f
6:00 2 2 mph 1017.4mb 63f 63f
5:54 2 6 mph 1017.3mb 63f 63f
5:48 6 6 mph 1017.2mb 63f 65f
5:42 6 6 mph 1017.2mb 63f 65f
5:36 6 7 mph 1017.2mb 63f 66f
5:30 6 6 mph 1017.2mb 63f 66f
5:24 6 6 mph 1017.2mb 63f 66f
5:18 3 6 mph 1017.1mb 62f 65f
5:12 6 7 mph 1017.2mb 62f 65f
5:06 6 6 mph 1017.2mb 62f 64f
5:00 5 6 mph 1017.1mb 62f 64f
4:54 5 6 mph 1017mb 62f 64f
4:48 5 5 mph 1016.9mb 62f 63f
4:42 5 6 mph 1017mb 62f 64f
4:36 6 6 mph 1017mb 62f 62f
4:30 2 3 mph 1016.9mb 62f 62f
4:24 3 3 mph 1017mb 62f 61f
4:18 3 5 mph 1017mb 62f 60f
4:12 3 5 mph 1016.9mb 62f 61f
4:06 2 2 mph 1016.9mb 62f 61f
4:00 1 2 mph 1016.9mb 62f 61f
3:54 1 2 mph 1016.8mb 62f 60f
3:48  -  1 mph 1016.8mb 62f 60f
3:42 1 2 mph 1016.7mb 62f 60f
3:36 1 2 mph 1016.7mb 62f 60f
3:30 2 2 mph 1016.7mb 62f 60f
3:24 2 2 mph 1016.6mb 62f 60f
3:18 1 3 mph 1016.7mb 62f 60f
3:12 3 3 mph 1016.6mb 62f 60f
3:06 3 3 mph 1016.6mb 62f 60f
3:00 2 2 mph 1016.5mb 62f 60f
2:54  -  1 mph 1016.5mb 62f 61f
2:48 1 1 mph 1016.5mb 62f 61f
2:42  -  1 mph 1016.4mb 62f 61f
2:36  -  1 mph 1016.5mb 62f 61f
2:30  -  1 mph 1016.5mb 62f 61f
2:24 1 2 mph 1016.5mb 62f 61f
2:18 2 3 mph 1016.5mb 62f 61f
2:12 2 3 mph 1016.5mb 62f 61f
2:06 3 3 mph 1016.6mb 62f 61f
2:00 2 2 mph 1016.6mb 62f 61f
1:54 1 1 mph 1016.7mb 62f 61f
1:48  -  2 mph 1016.7mb 62f 61f
1:42 2 3 mph 1016.7mb 62f 61f
1:36 1 2 mph 1016.7mb 63f 61f
1:30  -  0 mph 1016.7mb 62f 60f
1:24  -  2 mph 1016.6mb 62f 60f
1:18 1 2 mph 1016.6mb 62f 60f
1:12 2 2 mph 1016.6mb 63f 60f
1:06 2 2 mph 1016.6mb 63f 61f
1:00 1 2 mph 1016.7mb 63f 62f
12:54 1 1 mph 1016.8mb 63f 61f
12:48  -  2 mph 1016.7mb 63f 61f
12:42  -  2 mph 1016.7mb 63f 60f
12:36 1 2 mph 1016.7mb 63f 60f
12:30  -  1 mph 1016.6mb 63f 61f
12:24  -  2 mph 1016.7mb 63f 60f
12:18 2 2 mph 1016.7mb 63f 60f
12:12 2 2 mph 1016.7mb 63f 60f
12:06 2 2 mph 1016.7mb 63f 60f
12:00 2 3 mph 1016.8mb 63f 60f
sam. 09/23 11:54 2 2 mph 1016.8mb 63f 60f
11:48 2 3 mph 1016.9mb 63f 60f
11:42 3 3 mph 1016.9mb 63f 60f
11:36  -  1 mph 1016.8mb 63f 61f
11:30  -  1 mph 1016.8mb 63f 60f
11:24  -  2 mph 1016.8mb 63f 60f
11:18 1 1 mph 1016.8mb 63f 61f
11:12  -  1 mph 1016.7mb 64f 61f
11:06  -  1 mph 1016.8mb 64f 62f
11:00 1 2 mph 1016.8mb 65f 63f
10:54 1 2 mph 1016.8mb 66f 63f
10:48 2 3 mph 1016.8mb 66f 62f
10:42 2 2 mph 1016.9mb 66f 62f
10:36  -  2 mph 1016.9mb 66f 62f
10:30 1 2 mph 1017.1mb 66f 61f
10:24  -  1 mph 1017mb 66f 61f
10:18 1 2 mph 1016.9mb 66f 61f
10:12 2 2 mph 1017mb 66f 60f
10:06 2 2 mph 1017mb 66f 61f
10:00  -  1 mph 1017mb 66f 61f
9:54  -  1 mph 1017mb 66f 61f
9:48  -  1 mph 1017mb 67f 62f
9:42  -  1 mph 1016.9mb 67f 62f
9:36  -  1 mph 1016.9mb 66f 62f
9:30  -  1 mph 1016.8mb 66f 61f
9:24  -  1 mph 1016.8mb 66f 62f
9:18  -  1 mph 1016.8mb 66f 62f
9:12  -  1 mph 1016.7mb 66f 62f
9:06  -  1 mph 1016.7mb 66f 62f
9:00  -  1 mph 1016.6mb 66f 62f
8:54  -  1 mph 1016.6mb 66f 62f
8:48  -  2 mph 1016.6mb 66f 62f
8:42 1 2 mph 1016.6mb 66f 62f
8:36 2 2 mph 1016.6mb 66f 62f
8:30  -  1 mph 1016.6mb 65f 62f
8:24  -  2 mph 1016.6mb 65f 62f
8:18 2 2 mph 1016.7mb 65f 62f
8:12 2 2 mph 1016.6mb 65f 63f
8:06 2 2 mph 1016.6mb 65f 62f
8:00 1 1 mph 1016.5mb 65f 62f
7:54 1 2 mph 1016.5mb 65f 63f
7:48 2 2 mph 1016.5mb 65f 63f
7:42 2 2 mph 1016.5mb 65f 63f
7:36  -  1 mph 1016.5mb 65f 64f
7:30 1 2 mph 1016.5mb 65f 65f
7:24 2 3 mph 1016.4mb 65f 65f
7:18 3 3 mph 1016.5mb 65f 65f
7:12 3 5 mph 1016.5mb 65f 65f
7:06 2 3 mph 1016.5mb 65f 65f
7:00 2 3 mph 1016.4mb 65f 65f
6:54 3 6 mph 1016.3mb 65f 65f
6:48 5 6 mph 1016.3mb 65f 66f
6:42 5 5 mph 1016.2mb 66f 66f
6:36 2 3 mph 1016.2mb 66f 67f
6:30 2 2 mph 1016.3mb 66f 67f
6:24  -  2 mph 1016.3mb 66f 67f
6:18 2 3 mph 1016.3mb 66f 67f
6:12 3 3 mph 1016.3mb 66f 67f
6:06 3 3 mph 1016.3mb 66f 67f
6:00 3 5 mph 1016.4mb 66f 67f
5:54 3 5 mph 1016.3mb 66f 67f
5:48 5 6 mph 1016.3mb 65f 67f
5:42 6 6 mph 1016.3mb 65f 68f
5:36 5 6 mph 1016.3mb 65f 67f
5:30 6 8 mph 1016.3mb 65f 67f
5:24 8 9 mph 1016.3mb 65f 66f
5:18 7 8 mph 1016.3mb 65f 66f
5:12 6 6 mph 1016.3mb 65f 67f
5:06 6 6 mph 1016.2mb 65f 67f
5:00 6 7 mph 1016.3mb 64f 66f
4:54 5 6 mph 1016.3mb 65f 66f
4:48 3 5 mph 1016.3mb 64f 66f
4:42 5 7 mph 1016.3mb 64f 66f
4:36 7 8 mph 1016.2mb 64f 66f
4:30 6 8 mph 1016.2mb 64f 66f
4:24 7 8 mph 1016.3mb 64f 66f
4:18 6 8 mph 1016.4mb 64f 66f
4:12 7 8 mph 1016.4mb 64f 66f
4:06 6 8 mph 1016.4mb 64f 66f
4:00 6 7 mph 1016.5mb 64f 66f
3:54 6 7 mph 1016.5mb 64f 66f
3:48 6 8 mph 1016.5mb 63f 66f
3:42 7 8 mph 1016.5mb 63f 66f
3:36 6 8 mph 1016.5mb 63f 66f
3:30 7 9 mph 1016.5mb 63f 66f
3:24 8 9 mph 1016.5mb 63f 66f
3:18 6 7 mph 1016.6mb 63f 67f
3:12 6 6 mph 1016.6mb 63f 67f
3:06 6 7 mph 1016.5mb 63f 67f
3:00 5 7 mph 1016.5mb 63f 68f
2:54 3 6 mph 1016.6mb 62f 68f
2:48 3 6 mph 1016.6mb 62f 68f
2:42 5 6 mph 1016.8mb 62f 68f
2:36 5 6 mph 1016.7mb 62f 68f
2:30 5 6 mph 1016.7mb 62f 67f
2:24 5 5 mph 1016.8mb 62f 69f
2:18 5 5 mph 1016.9mb 62f 69f
2:12 3 6 mph 1016.9mb 62f 68f
2:06 5 8 mph 1017mb 62f 67f
2:00 6 8 mph 1016.9mb 62f 67f
1:54 6 8 mph 1017mb 62f 67f
1:48 6 7 mph 1016.8mb 62f 67f
1:42 5 7 mph 1016.7mb 62f 67f
1:36 6 7 mph 1016.7mb 62f 67f
1:30 5 7 mph 1016.8mb 62f 67f
1:24 3 6 mph 1017mb 62f 66f
1:18 5 7 mph 1017.1mb 62f 66f
1:12 5 6 mph 1017.1mb 62f 67f
1:06 3 7 mph 1017.1mb 62f 67f
1:00 5 7 mph 1017.1mb 62f 67f
12:54 6 8 mph 1017.2mb 62f 66f
12:48 6 7 mph 1017.1mb 62f 66f
12:42 6 8 mph 1016.9mb 62f 65f
12:36 6 8 mph 1016.9mb 62f 66f
12:30 6 8 mph 1016.9mb 62f 67f
12:24 6 7 mph 1017mb 62f 67f
12:18 6 8 mph 1017.1mb 62f 67f
12:12 6 8 mph 1017.1mb 62f 66f
12:06 6 7 mph 1017.2mb 62f 66f
12:00 6 7 mph 1017.2mb 62f 66f
11:54 6 8 mph 1017.1mb 62f 66f
11:48 6 9 mph 1017.1mb 62f 67f
11:42 8 9 mph 1017.1mb 62f 67f
11:36 7 8 mph 1017.2mb 62f 68f
11:30 6 8 mph 1017.3mb 62f 67f
11:24 7 9 mph 1017.4mb 62f 66f
11:18 7 8 mph 1017.4mb 62f 67f
11:12 6 8 mph 1017.5mb 62f 67f
11:06 7 8 mph 1017.5mb 62f 66f
11:00 5 7 mph 1017.4mb 62f 68f
10:54 6 7 mph 1017.4mb 62f 69f
10:48 6 8 mph 1017.4mb 62f 68f
10:42 6 7 mph 1017.4mb 62f 68f
10:36 7 8 mph 1017.4mb 62f 69f
10:30 6 7 mph 1017.3mb 62f 71f
10:24 2 3 mph 1017.3mb 62f 71f
10:18 3 5 mph 1017.4mb 62f 70f
10:12 6 7 mph 1017.5mb 62f 69f
10:06 5 7 mph 1017.5mb 61f 69f
10:00 6 8 mph 1017.5mb 61f 69f
9:54 6 8 mph 1017.6mb 61f 69f
9:48 7 9 mph 1017.5mb 61f 68f
9:42 7 9 mph 1017.5mb 61f 68f
9:36 6 9 mph 1017.4mb 61f 68f
9:30 5 9 mph 1017.4mb 61f 67f
9:24 5 10 mph 1017.6mb 61f 67f
9:18 7 9 mph 1017.5mb 61f 67f
9:12 6 10 mph 1017.5mb 61f 67f
9:06 9 10 mph 1017.5mb 61f 66f
9:00 8 11 mph 1017.5mb 61f 66f
8:54 8 13 mph 1017.5mb 61f 66f
8:48 9 13 mph 1017.5mb 61f 65f
8:42 9 11 mph 1017.5mb 62f 65f
8:36 9 11 mph 1017.4mb 62f 65f
8:30 6 8 mph 1017.4mb 62f 65f
8:24 5 7 mph 1017.2mb 62f 65f
8:18 7 9 mph 1017.2mb 62f 64f
8:12 8 10 mph 1017.2mb 62f 64f
8:06 7 9 mph 1017.3mb 62f 64f
8:00 6 8 mph 1017.1mb 62f 64f
7:54 5 7 mph 1017.2mb 62f 64f
7:48 5 8 mph 1017.1mb 62f 63f
7:42 7 9 mph 1016.9mb 62f 63f
7:36 7 10 mph 1016.8mb 62f 63f
7:30 9 10 mph 1016.8mb 62f 62f
7:24 6 9 mph 1016.7mb 62f 62f
7:18 7 10 mph 1016.8mb 62f 62f
7:12 6 9 mph 1016.9mb 62f 61f
7:06 8 9 mph 1016.9mb 62f 62f
7:00 8 11 mph 1016.9mb 62f 61f
6:54 9 10 mph 1016.9mb 62f 61f
6:48 8 9 mph 1016.9mb 62f 61f
6:42 7 9 mph 1016.9mb 62f 61f
6:36 6 7 mph 1016.8mb 62f 61f
6:30 6 6 mph 1016.8mb 62f 61f
6:24 6 7 mph 1016.8mb 62f 61f
6:18 6 7 mph 1016.8mb 62f 61f
6:12 7 9 mph 1016.8mb 62f 62f
6:06 8 10 mph 1016.9mb 62f 62f
6:00 7 9 mph 1016.9mb 62f 62f
5:54 6 8 mph 1016.7mb 62f 62f
5:48 7 9 mph 1016.6mb 62f 62f
5:42 6 8 mph 1016.5mb 62f 62f
5:36 7 8 mph 1016.4mb 62f 63f
5:30 5 6 mph 1016.4mb 62f 63f
5:24 6 6 mph 1016.3mb 62f 64f
5:18 5 6 mph 1016.3mb 62f 64f
5:12 6 7 mph 1016.3mb 62f 64f
5:06 5 7 mph 1016.4mb 62f 64f
5:00 6 8 mph 1016.5mb 62f 64f
4:54 7 9 mph 1016.6mb 62f 64f
4:48 7 9 mph 1016.6mb 62f 64f
4:42 7 8 mph 1016.6mb 61f 64f
4:36 7 8 mph 1016.6mb 61f 64f
4:30 8 9 mph 1016.6mb 61f 64f
4:24 7 8 mph 1016.7mb 61f 64f
4:18 7 8 mph 1016.7mb 62f 64f
4:12 6 8 mph 1016.7mb 61f 64f
4:06 7 8 mph 1016.8mb 62f 64f
4:00 6 8 mph 1016.8mb 62f 64f
3:54 6 8 mph 1016.8mb 62f 64f
3:48 6 8 mph 1016.9mb 62f 64f
3:42 6 7 mph 1016.9mb 62f 64f
3:36 6 8 mph 1016.9mb 62f 64f
3:30 8 9 mph 1016.9mb 62f 64f
3:24 7 8 mph 1016.9mb 62f 64f
3:18 7 8 mph 1017mb 62f 64f
3:12 7 9 mph 1017mb 62f 64f
3:06 7 9 mph 1017.1mb 62f 64f
3:00 8 10 mph 1017mb 62f 64f
2:54 8 10 mph 1017.2mb 62f 64f
2:48 7 10 mph 1017.2mb - -
2:42 8 10 mph 1017.2mb - -
2:36 8 11 mph 1017.3mb - -
2:30 7 8 mph 1017.4mb 62f 64f
2:24 6 8 mph 1017.4mb 62f 64f
2:18 8 9 mph 1017.5mb 62f 64f
2:12 6 8 mph 1017.4mb 62f 64f
2:06 7 8 mph 1017.5mb 62f 64f
2:00 6 7 mph 1017.6mb 62f 64f
1:54 6 6 mph 1017.5mb 62f 64f
1:48 5 6 mph 1017.6mb 62f 64f
1:42 5 6 mph 1017.6mb 62f 64f
1:36 6 8 mph 1017.7mb 62f 64f
1:30 6 9 mph 1017.7mb 62f 63f
1:24 7 8 mph 1017.6mb 62f 63f
1:18 7 8 mph 1017.7mb 62f 63f
1:12 6 8 mph 1017.6mb 62f 63f
1:06 8 9 mph 1017.5mb 62f 63f
1:00 8 9 mph 1017.6mb 62f 63f
12:54 6 7 mph 1017.4mb 62f 63f
12:48 7 8 mph 1017.4mb 62f 62f
12:42 6 8 mph 1017.4mb 62f 62f
12:36 6 8 mph 1017.2mb 62f 62f
12:30 6 8 mph 1017.3mb 62f 63f
12:24 6 7 mph 1017.4mb 62f 63f
12:18 5 6 mph 1017.4mb 62f 63f
12:12 6 7 mph 1017.6mb 62f 63f
12:06 6 7 mph 1017.7mb 62f 63f
12:00 6 8 mph 1017.8mb 62f 63f
ven. 09/22 11:54 6 7 mph 1017.8mb 62f 63f
11:48 5 6 mph 1017.8mb 62f 63f
11:42 6 7 mph 1017.9mb 62f 63f
11:36 5 6 mph 1017.9mb 62f 63f
11:30 5 6 mph 1018mb 62f 63f
11:24 5 8 mph 1018mb 62f 63f
11:18 6 7 mph 1018.1mb 62f 63f
11:12 6 7 mph 1018.1mb 62f 63f
11:06 5 6 mph 1018mb 62f 63f
11:00 5 7 mph 1018mb 62f 63f
10:54 5 6 mph 1018mb 62f 63f
10:48 3 5 mph 1017.9mb 62f 63f
10:42 5 7 mph 1017.9mb 62f 63f
10:36 5 8 mph 1017.9mb 62f 63f
10:30 6 7 mph 1017.9mb 62f 63f
10:24 5 8 mph 1017.8mb 62f 63f
10:18 7 10 mph 1017.8mb 62f 63f
10:12 7 9 mph 1017.6mb 63f 63f
10:06 7 9 mph 1017.7mb 63f 63f
10:00 7 9 mph 1017.8mb 63f 63f
9:54 6 8 mph 1017.9mb 63f 63f
9:48 7 9 mph 1017.9mb 63f 63f
9:42 7 10 mph 1017.9mb 63f 64f
9:36 8 10 mph 1017.7mb 63f 64f
9:30 7 9 mph 1017.6mb 63f 64f
9:24 7 10 mph 1017.7mb 63f 64f
9:18 8 11 mph 1017.9mb 63f 64f
9:12 8 10 mph 1017.9mb 63f 64f
9:06 8 13 mph 1017.8mb 63f 64f
9:00 8 15 mph 1017.7mb 63f 64f
8:54 9 13 mph 1017.9mb 63f 64f
8:48 9 14 mph 1018mb 63f 63f
8:42 8 15 mph 1018mb 63f 63f
8:36 8 13 mph 1018mb 63f 63f
8:30 8 11 mph 1018mb 63f 63f
8:24 9 13 mph 1018mb 63f 63f
8:18 10 14 mph 1017.9mb 63f 63f
8:12 9 13 mph 1017.9mb 63f 63f
8:06 8 11 mph 1017.9mb 63f 63f
8:00 8 13 mph 1017.9mb 63f 63f
7:54 8 11 mph 1018mb 63f 63f
7:48 9 13 mph 1017.9mb 62f 63f
7:42 8 10 mph 1018mb 62f 64f
7:36 7 9 mph 1017.9mb 62f 64f
7:30 7 14 mph 1017.9mb 62f 64f
7:24 9 11 mph 1017.9mb 62f 64f
7:18 7 11 mph 1017.9mb 62f 64f
7:12 8 11 mph 1017.7mb 62f 64f
7:06 8 10 mph 1017.6mb 62f 64f
7:00 6 8 mph 1017.6mb 62f 64f
6:54 7 9 mph 1017.4mb 62f 64f
6:48 8 13 mph 1017.5mb 62f 63f
6:42 13 16 mph 1017.6mb 62f 63f
6:36 13 16 mph 1017.6mb 62f 63f
6:30 9 13 mph 1017.6mb 62f 63f
6:24 8 9 mph 1017.5mb 62f 64f
6:18 8 11 mph 1017.6mb 62f 66f
6:12 9 16 mph 1017.6mb 62f 68f
6:06 10 14 mph 1017.5mb 62f 69f
6:00 8 13 mph 1017.6mb 62f 68f
5:54 8 14 mph 1017.6mb 62f 68f
5:48 6 8 mph 1017.5mb 62f 68f
5:42 6 8 mph 1017.5mb 62f 68f
5:36 6 8 mph 1017.5mb 62f 68f
5:30 7 9 mph 1017.4mb 62f 68f
5:24 6 8 mph 1017.4mb 62f 68f
5:18 7 8 mph 1017.4mb 62f 68f
5:12 7 10 mph 1017.4mb 62f 68f
5:06 8 11 mph 1017.4mb 62f 68f
5:00 7 13 mph 1017.4mb 62f 68f
4:54 10 11 mph 1017.4mb 62f 68f
4:48 13 15 mph 1017.4mb 62f 68f
4:42 7 13 mph 1017.5mb 62f 68f
4:36 10 14 mph 1017.4mb 62f 68f
4:30 9 14 mph 1017.4mb 62f 68f
4:24 11 13 mph 1017.4mb 62f 68f
4:18 13 20 mph 1017.4mb 62f 68f
4:12 14 18 mph 1017.3mb 62f 68f
4:06 10 16 mph 1017.4mb 62f 68f
4:00 14 22 mph 1017.5mb 62f 68f
3:54 11 17 mph 1017.4mb 62f 68f
3:48 14 18 mph 1017.5mb 62f 68f
3:42 14 20 mph 1017.5mb 62f 68f
3:36 14 21 mph 1017.4mb 62f 68f
3:30 13 17 mph 1017.4mb 62f 68f
3:24 11 20 mph 1017.3mb 62f 68f
3:18 15 18 mph 1017.3mb 62f 68f
3:12 11 21 mph 1017.5mb 62f 67f
3:06 15 20 mph 1017.5mb 62f 67f
3:00 13 17 mph 1017.6mb 62f 67f
2:54 15 21 mph 1017.7mb 62f 67f
2:48 15 21 mph 1017.7mb 62f 67f
2:42 14 21 mph 1017.6mb 62f 67f
2:36 18 24 mph 1017.6mb 62f 67f
2:30 15 22 mph 1017.7mb 62f 67f
2:24 13 16 mph 1017.7mb 62f 67f
2:18 15 21 mph 1017.8mb 62f 67f
2:12 16 21 mph 1017.9mb 62f 66f
2:06 14 21 mph 1017.9mb 62f 66f
2:00 17 22 mph 1018mb 62f 66f
1:54 14 16 mph 1018mb 62f 66f
1:48 13 22 mph 1017.9mb 62f 66f
1:42 17 24 mph 1017.9mb 62f 66f
1:36 16 22 mph 1018mb 62f 66f
1:30 18 21 mph 1018.1mb 62f 66f
1:24 15 20 mph 1018.2mb 62f 66f
1:18 11 18 mph 1018.2mb 62f 65f
1:12 11 16 mph 1018.2mb 62f 65f
1:06 11 21 mph 1018.3mb 62f 65f
1:00 10 20 mph 1018.5mb 62f 65f
12:54 13 20 mph 1018.5mb 62f 64f
12:48 13 18 mph 1018.7mb 62f 64f
12:42 11 18 mph 1018.7mb 62f 64f
12:36 16 24 mph 1018.6mb 62f 64f
12:30 15 21 mph 1018.6mb 62f 64f
12:24 20 28 mph 1018.6mb 62f 64f
12:18 18 28 mph 1018.5mb 62f 64f
12:12 16 22 mph 1018.5mb 62f 64f
12:06 18 25 mph 1018.6mb 62f 64f
12:00 17 22 mph 1018.7mb 62f 64f
11:54 16 23 mph 1018.8mb 61f 63f
11:48 15 23 mph 1018.9mb 61f 63f
11:42 10 16 mph 1019.2mb 61f 63f
11:36 10 14 mph 1019.2mb 61f 62f
11:30 11 16 mph 1019.3mb 61f 62f
11:24 10 14 mph 1019.3mb 61f 61f
11:18 10 14 mph 1019.4mb 61f 61f
11:12 8 13 mph 1019.3mb 61f 62f
11:06 9 17 mph 1019.4mb 61f 62f
11:00 13 18 mph 1019.2mb 61f 61f